Regional Weather Roundup
Issued by NWS

Home | Current Version | Previous Version | Graphics & Text | Print | Product List | Glossary On
Versions: 1 2 3 4 5 6 7 8 9 10 11 12 13 14 15 16 17 18 19 20 21 22 23 24 25 26 27 28 29 30 31 32 33 34 35 36 37 38 39 40 41 42 43 44 45 46 47 48 49 50
275
ASUS43 KOAX 250410
RWRNE

WEATHER ROUNDUP FOR NEBRASKA
NATIONAL WEATHER SERVICE OMAHA NE
1000 PM CST FRI FEB 24 2017

NOTES: SATELLITE DATA IS BEING USED TO AUGMENT CLOUD COVER ABOVE
       12000 FEET.
       "FAIR" INDICATES FEW OR NO CLOUDS BELOW 12,000 FEET WITH NO
       SIGNIFICANT WEATHER AND/OR OBSTRUCTIONS TO VISIBILITY.

  * THESE STATIONS DO NOT REPORT WEATHER SUCH AS RAIN...SNOW OR FOG.

NEZ001>004-019>022-054>056-250500-
NEBRASKA PANHANDLE

CITY           SKY/WX    TMP DP  RH WIND       PRES   REMARKS
SCOTTSBLUFF    CLOUDY     9   4  80 NE3       30.06R
ALLIANCE       CLOUDY     1  -2  87 CALM      30.05S FOG
CHADRON        CLOUDY     6   2  83 W5        30.08R WCI  -3
KIMBALL        CLOUDY     8   6  93 SW8       30.03R WCI  -5
SIDNEY         CLOUDY     6   3  87 SW8       30.05S WCI  -7
$$

NEZ057>060-069>072-079>082-250500-
SOUTHWEST NEBRASKA

CITY           SKY/WX    TMP DP  RH WIND       PRES   REMARKS
NORTH PLATTE   CLOUDY    15   8  73 NW9       30.14R WCI   3
IMPERIAL       CLOUDY    20  15  81 N8        30.13R WCI  10
LEXINGTON      CLOUDY    17  11  78 W10       30.14R WCI   4
MCCOOK         CLOUDY    16  12  84 NW7       30.16R WCI   6
OGALLALA       CLOUDY    14  11  89 CALM      30.12S
$$

NEZ005>010-023>029-035>040-094-250500-
NORTH CENTRAL NEBRASKA

CITY           SKY/WX    TMP DP  RH WIND       PRES   REMARKS
VALENTINE      CLOUDY     0  -4  83 SW6       30.12R WCI -12
AINSWORTH      CLEAR     11   9  90 W7        30.10S WCI   0
BROKEN BOW     CLEAR     17  10  74 NW14      30.11R WCI   3
O`NEILL        CLEAR     21  14  74 NW13      30.10S WCI   8
ORD            CLOUDY    20  11  68 NW10      30.11R WCI   9
THEDFORD       CLOUDY     9   5  84 W8        30.11S WCI  -3
$$

NEZ041-046>049-061>064-073>077-083>087-250500-
SOUTH CENTRAL NEBRASKA

CITY           SKY/WX    TMP DP  RH WIND       PRES   REMARKS
GRAND ISLAND   CLEAR     19  13  77 NW13      30.12R WCI   6
AURORA         CLEAR     21  14  76 NW12      30.10R WCI   9
HASTINGS       CLEAR     19  12  74 NW15      30.13R WCI   5
HEBRON         CLEAR     21  16  79 NW10      30.13R WCI  10
HOLDREGE       CLOUDY    15  10  81 NW7       30.14R WCI   5
KEARNEY *      CLEAR     19  10  68 NW12      30.13S WCI   7
YORK           CLEAR     23  16  74 NW18      30.08R WCI   9
$$

NEZ011>018-030>034-042>045-250500-
NORTHEAST NEBRASKA

CITY           SKY/WX    TMP DP  RH WIND       PRES   REMARKS
NORFOLK        CLOUDY    23  15  71 NW14      30.06R WCI  11
ALBION         CLOUDY    25  14  64 NW16      30.08R WCI  12
BLAIR          PTCLDY    23  17  76 NW14      30.01R WCI  11
FREMONT        CLOUDY    24  18  77 NW15      30.04R WCI  12
TEKAMAH        CLEAR     22  15  75 NW15      30.04R WCI   9
WAYNE          CLEAR     22  16  76 N16       30.05R WCI   9
$$

NEZ050>053-065>068-078-088>093-250500-
SOUTHEAST NEBRASKA

CITY           SKY/WX    TMP DP  RH WIND       PRES   REMARKS
LINCOLN        CLOUDY    25  18  74 NW12G20   30.08R WCI  14
OMAHA EPPLEY   PTCLDY    24  15  68 NW14      30.02R WCI  12
BEATRICE       PTCLDY    26  19  76 NW14      30.08R WCI  14
FALLS CITY     CLEAR     25  17  72 NW15      30.04R WCI  13
NEBRASKA CITY  CLOUDY    24  16  70 NW10      30.03R WCI  14
PLATTSMOUTH    PTCLDY    24  15  67 NW8       30.02R WCI  15
$$

NEZ044-045-051>053-067-250500-
OMAHA AREA

CITY           SKY/WX    TMP DP  RH WIND       PRES   REMARKS
OMAHA EPPLEY   PTCLDY    24  15  68 NW14      30.02R WCI  12
BLAIR          PTCLDY    23  17  76 NW14      30.01R WCI  11
FREMONT        CLOUDY    24  18  77 NW15      30.04R WCI  12
MILLARD        PTCLDY    28  19  68 NW10      30.03S WCI  19
OFFUTT AFB     PTCLDY    25  15  68 NW14      30.02R WCI  13
PLATTSMOUTH    PTCLDY    24  15  67 NW8       30.02R WCI  15
WAHOO          FAIR      25  18  75 NW14G21   30.04R WCI  13
$$




USA.gov is the U.S. government's official web portal to all federal, state and local government web resources and services.